Tracking 19176 objects as of 26-May-2018
HD Live streaming from Space Station
objects crossing your sky now

THAICOM 1

Track THAICOM 1 now!
THAICOM 1 is classified as:


NORAD ID: 22931
Int'l Code: 1993-078B
Perigee: 36,092.7 km
Apogee: 36,112.3 km
Inclination: 7.0 °
Period: 1,451.9 minutes
Semi major axis: 42473 km
RCS: 1 m2 (large)
Launch date: December 18, 1993
Source: Thailand (THAI)
Launch site: FRENCH GUIANA (FRGUI)

12 C-band, 3 Ku-band; Southeast Asia, Korea, Japan, east coast of China.
aabbcc
Your satellite tracking list
Your tracking list is empty




NASA's NSSDC Master Catalog

Two Line Element Set (TLE):
1 22931U 93078B   18145.87134833 +.00000072 +00000-0 +00000-0 0  9999
2 22931 007.0093 052.8514 0002306 172.2007 026.7531 00.99180455016960
Source of the keplerian elements: AFSPC